This demonstration page uses our WeatherBlox Daily Observations layout. Learn more.

38.89511, -77.03637

Hourly Observations for April 28, 2017

Temp ( °F °C ) Dew Point ( °F °C ) Humidity (%) Winds ( mph kmh ) Pressure ( in mb ) Visibility ( mi km ) Precip ( " mm )
12:52 am 00:52 Cloudy with Light Rain 70 21.1 63 17.2 79 79 S 10 17 29.83 1010 10 16.09344 0.001 0.001
1:27 am 01:27 Partly Cloudy with Nearby Thunderstorms 69 20.6 63 17.2 81 81 S 8 13 29.85 1011 10 16.09344 0.001 0.001
1:42 am 01:42 Mostly Clear 70 21 63 17 78 78 S 7 11 29.85 1011 10 16.09344 0 0
1:52 am 01:52 Partly Cloudy 68 20 63 17.2 84 84 S 9 15 29.85 1011 10 16.09344 0.001 0.001
2:15 am 02:15 Mostly Cloudy with Light Thunderstorms 68 20 64 17.8 87 87 S 7 11 29.85 1011 10 16.09344 0.001 0.001
2:30 am 02:30 Mostly Cloudy 70 21 63 17 78 78 SSW 7 11 29.88 1012 10 16.09344 0 0
2:52 am 02:52 Cloudy with Thunderstorms 70 21.1 62 16.7 76 76 SSW 9 15 29.85 1011 10 16.09344 0.001 0.001
3:13 am 03:13 Mostly Cloudy with Nearby Thunderstorms 69 20.6 62 16.7 78 78 SSW 7 11 29.88 1012 10 16.09344 0 0
3:27 am 03:27 Mostly Clear 69 20.6 61 16.1 76 76 SW 5 7 29.88 1012 10 16.09344 0 0
3:52 am 03:52 Mostly Clear 67 19.4 61 16.1 81 81 S 6 9 29.85 1011 10 16.09344 0 0
4:52 am 04:52 Mostly Clear 67 19.4 61 16.1 81 81 SSW 6 9 29.88 1012 10 16.09344 0 0
5:52 am 05:52 Partly Cloudy 66 18.9 61 16.1 84 84 WSW 5 7 29.91 1013 10 16.09344 0 0
6:52 am 06:52 Mostly Sunny 67 19.4 61 16.1 81 81 W 3 6 29.94 1014 10 16.09344 0 0
7:52 am 07:52 Mostly Sunny 68 20 63 17.2 84 84 S 6 9 30 1016 10 16.09344 0 0
8:52 am 08:52 Mostly Sunny 70 21.1 64 17.8 82 82 SE 5 7 30 1016 10 16.09344 0 0
9:52 am 09:52 Sunny 76 24.4 61 16.1 60 60 N 8 13 30 1016 10 16.09344 0 0
10:52 am 10:52 Mostly Sunny 77 25 60 15.6 56 56 NE 7 11 30.03 1017 10 16.09344 0 0
11:52 am 11:52 Mostly Sunny 79 26.1 60 15.6 52 52 ENE 6 9 30.03 1017 10 16.09344 0 0
12:52 pm 12:52 Mostly Sunny 81 27.2 60 15.6 49 49 SE 5 7 30.03 1017 10 16.09344 0 0
1:52 pm 13:52 Mostly Sunny 82 27.8 60 15.6 47 47 S 12 19 30.03 1017 10 16.09344 0 0
2:52 pm 14:52 Mostly Sunny 84 28.9 58 14.4 41 41 SSW 13 20 30 1016 10 16.09344 0 0
3:52 pm 15:52 Partly Cloudy 83 28.3 60 15.6 46 46 S 13 20 30 1016 10 16.09344 0 0
4:52 pm 16:52 Partly Cloudy 83 28.3 61 16.1 48 48 S 9 15 30 1016 10 16.09344 0 0
5:52 pm 17:52 Partly Cloudy 81 27.2 63 17.2 54 54 S 13 20 30 1016 10 16.09344 0 0
6:52 pm 18:52 Mostly Cloudy 80 26.7 65 18.3 60 60 S 9 15 29.97 1015 10 16.09344 0 0
7:52 pm 19:52 Mostly Cloudy 78 25.6 64 17.8 62 62 SSE 14 22 29.97 1015 10 16.09344 0 0
8:52 pm 20:52 Mostly Cloudy 76 24.4 63 17.2 64 64 S 8 13 30 1016 10 16.09344 0 0
9:52 pm 21:52 Mostly Cloudy 74 23.3 64 17.8 71 71 S 3 6 30.03 1017 10 16.09344 0 0
10:52 pm 22:52 Mostly Cloudy 72 22.2 67 19.4 84 84 S 8 13 30 1016 10 16.09344 0 0
11:52 pm 23:52 Mostly Cloudy 72 22.2 68 20 87 87 S 6 9 30 1016 10 16.09344 0 0

Powered by AerisWeather